User: anonymous   Login
Location: Unspecified
(0.0000°N, 0.0000°E)
Time: 18:58:19
(UTC+02:00)
Language:

Centaur D-1AR AC-41 - Orbit

View from above orbital plane
View from above orbital plane
View from above satellite
View from above satellite

Ground track
Ground track

The orbit data is extracted from the following two-line orbital elements,

1 10976U 78068B   17142.28425591 -.00000081 +00000-0 -46385-3 0  9993
2 10976 021.1941 212.0409 7197536 241.8046 279.2519 02.22313365312507
Epoch (UTC): 22 May 2017 06:49:19
Eccentricity: 0.7197536
inclination: 21.1941°
perigee height: 571 km
apogee height: 36269 km
right ascension of ascending node: 212.0409°
argument of perigee: 241.8046°
revolutions per day: 2.22313365
mean anomaly at epoch: 279.2519°
orbit number at epoch: 31250

The dashed part of the orbit path shows where the satellite is in the earth's shadow,  

DLR